Wetterstats.de || Aktuelle Messwerte || Aktuelle Wetterkarten NEU! || Radar / Satellit NEU! || Wetterarchiv || Langzeitwerte NEU! || Klim. Kenntage || Met. Ereignisse || Agrarwerte || Echtzeitwerte

Monatsübersicht für Oktober 2020 Diagramm
 
Wetter Information zur Wetteranzeige
Zeitraffer
Tageslänge (hh:mm)
Höchsttemperatur in °C
Uhrzeit
Tiefsttemperatur in °C
Uhrzeit
Luftfeuchte (max., in %)
Uhrzeit
Luftfeuchte (min., in %)
Uhrzeit
Luftdruck (max., in hPa)
Uhrzeit
Luftdruck (min., in hPa)
Uhrzeit
Luftdruck (Ø, in hPa)
Regenrate (max, mm/h)
Uhrzeit
Niederschlag in mm
Verdunstung in mm
Solar in W/m² (Ø)
Solar in W/m² (max.)
UV-Index (max.)
Sonnenscheindauer (hh:mm)
Windrichtung (Ø)
Windstärke (Ø in km/h)
Windstärke (Ø in bft)
Windböe (max., in km/h)
Uhrzeit
Windböe (max., in bft)
Uhrzeit
Taupunkt (max., in °C)
Uhrzeit
Taupunkt (min., in °C)
Uhrzeit
Windchill (min., in °C)
Uhrzeit
Gewitterindex (max.)
Uhrzeit
Waldbrandindex (max.)
Uhrzeit
Graslandfeuerindex (max.)
Uhrzeit
Staubsturm-Index (max.)
Uhrzeit
01
Zeitraffer
11:39
14.3
14:05 Uhr
6.4
03:00 Uhr

95
02:35 Uhr
92
20:10 Uhr
1013.4
00:05 Uhr

1003.6
23:45 Uhr
1008.6
2,400
22:55 Uhr
0,200
0.356
99
250
13:45 Uhr
1.3
13:20 Uhr

00:00:00
0,1
0
4,8
07:45 Uhr

1
13.3
13:50 Uhr
5.6
03:10 Uhr
6.4
03:00 Uhr
5
20:10 Uhr

00:00 Uhr

00:00 Uhr

00:00 Uhr
02
Zeitraffer
11:34
16.7
16:25 Uhr
12.6
22:35 Uhr

95
06:35 Uhr
82
15:15 Uhr
1003.5
00:05 Uhr

999.9
23:45 Uhr
1002.2
2,400
04:00 Uhr
0,800
0.711
103
364
11:45 Uhr
1.2
11:45 Uhr

00:50:00
1,7
0
22,5
15:25 Uhr

4
14.3
11:55 Uhr
11.3
19:25 Uhr
12.6
22:35 Uhr
5
11:50 Uhr

00:00 Uhr

00:00 Uhr

00:00 Uhr
03
Zeitraffer
11:30
22.4
15:10 Uhr
12.3
01:20 Uhr

94
01:55 Uhr
67
14:55 Uhr
999.7
00:05 Uhr

992.3
18:00 Uhr
995.2
2,400
05:40 Uhr
0,200
1.524
209
547
13:20 Uhr
1.9
13:20 Uhr

05:10:00
2,0
0
24,1
13:35 Uhr

4
16.2
15:15 Uhr
11.2
01:20 Uhr
12.3
01:20 Uhr
9
19:10 Uhr

00:00 Uhr

00:00 Uhr

00:00 Uhr
04
Zeitraffer
11:27
18.9
15:55 Uhr
7.1
23:55 Uhr

94
05:40 Uhr
57
16:20 Uhr
1006.0
23:45 Uhr

993.4
03:00 Uhr
998.8
8,400
04:30 Uhr
3,700
1.448
223
515
13:15 Uhr
1.7
13:10 Uhr

05:15:00
1,3
0
20,9
14:35 Uhr

4
14.8
00:20 Uhr
6.1
23:55 Uhr
7.1
23:55 Uhr
8
00:05 Uhr

00:00 Uhr

00:00 Uhr

00:00 Uhr
05
Zeitraffer
11:22
16.5
13:25 Uhr
5.8
01:25 Uhr

94
00:40 Uhr
77
13:45 Uhr
1006.4
01:15 Uhr

1002.8
12:45 Uhr
1004.4
2,400
17:45 Uhr
0,200
0.762
119
340
13:15 Uhr
1.3
13:15 Uhr

00:20:00
1,2
0
20,9
16:35 Uhr

4
13.1
13:20 Uhr
4.8
01:20 Uhr
5.8
01:25 Uhr
4
13:20 Uhr

00:00 Uhr

00:00 Uhr

00:00 Uhr
06
Zeitraffer
11:18
15.8
16:45 Uhr
8.8
06:50 Uhr

92
00:05 Uhr
72
16:45 Uhr
1005.1
01:45 Uhr

1002.5
23:30 Uhr
1004.1
0,000
00:05 Uhr
0,000
0.914
123
561
13:40 Uhr
1.4
13:40 Uhr

01:20:00
2,7
1
25,7
11:05 Uhr

4
12.8
13:40 Uhr
7.3
05:35 Uhr
8.8
06:50 Uhr
3
13:40 Uhr

00:00 Uhr

00:00 Uhr

00:00 Uhr
07
Zeitraffer
11:14
16.3
14:10 Uhr
10.3
07:00 Uhr

92
23:25 Uhr
72
14:10 Uhr
1014.8
23:45 Uhr

1002.5
00:05 Uhr
1007.8
2,400
16:45 Uhr
0,200
1.092
134
570
14:05 Uhr
1.7
11:55 Uhr

01:05:00
1,9
0
22,5
17:00 Uhr

4
11.9
15:45 Uhr
8.5
06:50 Uhr
10.3
07:00 Uhr
2
00:05 Uhr

00:00 Uhr

00:00 Uhr

00:00 Uhr
08
Kein Zeitraffer vorhanden
11:10
16.1
13:10 Uhr
8.8
06:15 Uhr

93
05:50 Uhr
64
13:15 Uhr
1018.8
09:00 Uhr

1014.0
22:45 Uhr
1016.4
2,400
18:25 Uhr
0,800
1.067
158
631
13:00 Uhr
2.1
13:00 Uhr

02:55:00
2,9
1
29,0
13:05 Uhr

4
11.9
23:45 Uhr
7.6
06:25 Uhr
8.8
06:15 Uhr
4
20:05 Uhr

00:00 Uhr

00:00 Uhr

00:00 Uhr
09
Kein Zeitraffer vorhanden
11:06
15.4
14:20 Uhr
10.7
08:10 Uhr

94
05:20 Uhr
77
13:00 Uhr
1019.5
12:15 Uhr

1013.4
01:30 Uhr
1016.9
2,400
00:25 Uhr
3,000
0.711
120
429
10:55 Uhr
1.7
12:00 Uhr

00:25:00
1,7
0
24,1
01:10 Uhr

4
12.7
05:20 Uhr
9.6
08:10 Uhr
10.7
08:10 Uhr
5
03:45 Uhr

00:00 Uhr

00:00 Uhr

00:00 Uhr
10
Kein Zeitraffer vorhanden
11:02
13.8
01:00 Uhr
6.3
23:05 Uhr

94
05:05 Uhr
75
15:50 Uhr
1019.5
22:30 Uhr

1014.8
03:15 Uhr
1017.1
2,400
00:10 Uhr
0,200
0.559
94
269
12:40 Uhr
1.2
12:35 Uhr

00:15:00
1,6
0
20,9
13:55 Uhr

4
12.7
01:00 Uhr
4.6
23:15 Uhr
6.3
23:05 Uhr
5
00:05 Uhr

00:00 Uhr

00:00 Uhr

00:00 Uhr
11
Kein Zeitraffer vorhanden
10:57
11.4
12:20 Uhr
2.1
07:35 Uhr

94
09:00 Uhr
72
14:10 Uhr
1019.2
00:05 Uhr

1017.9
07:45 Uhr
1018.4
2,400
01:50 Uhr
0,200
0.787
134
487
13:00 Uhr
1.6
12:10 Uhr

01:55:00
1,2
0
19,3
12:20 Uhr

3
7.2
11:25 Uhr
1.1
07:35 Uhr
2.1
07:35 Uhr
0
00:05 Uhr

00:00 Uhr

00:00 Uhr

00:00 Uhr
12
Kein Zeitraffer vorhanden
10:54
12.0
14:45 Uhr
1.6
23:55 Uhr

94
10:10 Uhr
77
14:50 Uhr
1018.6
00:15 Uhr

1016.1
15:30 Uhr
1017.2
2,400
08:10 Uhr
0,400
0.559
112
413
11:30 Uhr
1.2
11:30 Uhr

00:45:00
0,5
0
11,3
13:10 Uhr

2
8.9
16:10 Uhr
-0.1
23:55 Uhr
1.6
23:55 Uhr
0
00:05 Uhr

00:00 Uhr

00:00 Uhr

00:00 Uhr
13
Kein Zeitraffer vorhanden
10:50
11.4
15:45 Uhr
-0.7
03:40 Uhr

94
10:10 Uhr
83
16:20 Uhr
1016.6
00:15 Uhr

1010.8
23:45 Uhr
1014.5
0,000
00:05 Uhr
0,000
0.483
107
227
12:35 Uhr
0.9
12:30 Uhr

00:10:00
0,9
0
20,9
20:50 Uhr

4
9.3
14:50 Uhr
-2.0
03:30 Uhr
-0.7
03:40 Uhr
0
00:05 Uhr

00:00 Uhr

00:00 Uhr

00:00 Uhr
14
Kein Zeitraffer vorhanden
10:46
10.3
00:05 Uhr
8.4
06:40 Uhr

94
18:00 Uhr
85
00:05 Uhr
1010.6
00:05 Uhr

1004.2
13:00 Uhr
1006.3
6,000
08:05 Uhr
23,900
0.254
25
49
13:50 Uhr
0.0
00:05 Uhr

00:00:00
5,5
1
40,2
11:15 Uhr

5
9.1
20:10 Uhr
7.2
06:40 Uhr
4.5
06:30 Uhr
2
18:45 Uhr

00:00 Uhr

00:00 Uhr

00:00 Uhr
15
Kein Zeitraffer vorhanden
10:42
12.0
14:45 Uhr
9.9
02:05 Uhr

94
00:05 Uhr
90
14:25 Uhr
1017.6
23:15 Uhr

1009.0
00:05 Uhr
1013.5
2,400
02:15 Uhr
1,600
0.229
49
195
12:00 Uhr
1.0
11:55 Uhr

00:00:00
1,6
0
17,7
15:45 Uhr

3
10.6
13:25 Uhr
8.9
23:50 Uhr
9.9
02:05 Uhr
2
00:05 Uhr

00:00 Uhr

00:00 Uhr

00:00 Uhr


 
Wetter Information zur Wetteranzeige
Zeitraffer
Tageslänge (hh:mm)
Höchsttemperatur in °C
Uhrzeit
Tiefsttemperatur in °C
Uhrzeit
Luftfeuchte (max., in %)
Uhrzeit
Luftfeuchte (min., in %)
Uhrzeit
Luftdruck (max., in hPa)
Uhrzeit
Luftdruck (min., in hPa)
Uhrzeit
Luftdruck (Ø, in hPa)
Regenrate (max, mm/h)
Uhrzeit
Niederschlag in mm
Verdunstung in mm
Solar in W/m² (Ø)
Solar in W/m² (max.)
UV-Index (max.)
Sonnenscheindauer (hh:mm)
Windrichtung (Ø)
Windstärke (Ø in km/h)
Windstärke (Ø in bft)
Windböe (max., in km/h)
Uhrzeit
Windböe (max., in bft)
Uhrzeit
Taupunkt (max., in °C)
Uhrzeit
Taupunkt (min., in °C)
Uhrzeit
Windchill (min., in °C)
Uhrzeit
Gewitterindex (max.)
Uhrzeit
Waldbrandindex (max.)
Uhrzeit
Graslandfeuerindex (max.)
Uhrzeit
Staubsturm-Index (max.)
Uhrzeit
16
Kein Zeitraffer vorhanden
10:38
11.8
12:50 Uhr
8.2
08:35 Uhr

92
08:50 Uhr
78
13:10 Uhr
1019.0
10:15 Uhr

1017.7
00:05 Uhr
1018.4
2,400
13:40 Uhr
0,200
0.584
101
333
11:50 Uhr
1.6
11:45 Uhr

00:25:00
1,9
0
19,3
11:45 Uhr

3
9.0
00:25 Uhr
6.8
08:35 Uhr
8.2
08:35 Uhr
2
00:05 Uhr

00:00 Uhr

00:00 Uhr

00:00 Uhr
17
Kein Zeitraffer vorhanden
10:34
11.6
13:40 Uhr
5.7
08:20 Uhr

94
09:10 Uhr
65
15:20 Uhr
1018.5
00:05 Uhr

1017.0
23:15 Uhr
1017.9
0,000
00:05 Uhr
0,000
0.838
193
536
13:40 Uhr
1.4
12:20 Uhr

03:35:00
0,8
0
17,7
11:30 Uhr

3
7.5
10:35 Uhr
4.5
14:20 Uhr
5.7
08:20 Uhr
0
00:05 Uhr

00:00 Uhr

00:00 Uhr

00:00 Uhr
18
Kein Zeitraffer vorhanden
10:30
10.2
12:30 Uhr
6.4
23:25 Uhr

93
04:00 Uhr
82
12:25 Uhr
1019.5
23:30 Uhr

1015.9
07:15 Uhr
1017.0
2,400
07:00 Uhr
1,200
0.406
73
194
13:05 Uhr
0.9
12:10 Uhr

00:00:00
4,0
1
30,6
11:15 Uhr

5
7.9
15:20 Uhr
5.2
01:55 Uhr
6.1
10:35 Uhr
0
00:05 Uhr

00:00 Uhr

00:00 Uhr

00:00 Uhr
19
Zeitraffer
10:26
11.5
13:50 Uhr
5.3
23:55 Uhr

94
00:10 Uhr
75
13:40 Uhr
1023.0
19:15 Uhr

1019.5
00:05 Uhr
1021.9
0,000
00:05 Uhr
0,000
0.558
100
417
11:10 Uhr
1.2
12:20 Uhr

00:30:00
1,1
0
17,7
13:50 Uhr

3
8.6
11:20 Uhr
3.8
23:55 Uhr
5.3
23:55 Uhr
0
00:05 Uhr

00:00 Uhr

00:00 Uhr

00:00 Uhr
20
Zeitraffer
10:22
12.3
15:20 Uhr
1.3
07:35 Uhr

95
00:25 Uhr
73
15:25 Uhr
1022.7
00:06 Uhr

1012.8
20:15 Uhr
1017.4
2,400
15:15 Uhr
0,200
0.838
141
410
13:00 Uhr
1.2
13:00 Uhr

01:40:00
2,3
1
25,7
12:35 Uhr

4
8.0
13:15 Uhr
0.2
07:30 Uhr
1.3
07:35 Uhr
0
00:06 Uhr

00:00 Uhr

00:00 Uhr

00:00 Uhr
21
Zeitraffer
10:19
15.2
15:40 Uhr
10.6
06:50 Uhr

87
04:40 Uhr
72
15:45 Uhr
1013.1
00:00 Uhr

1008.3
20:30 Uhr
1010.6
0,000
00:00 Uhr
0,000
0.838
97
236
13:20 Uhr
1.0
12:40 Uhr

00:10:00
2,4
1
20,9
20:30 Uhr

4
10.4
15:40 Uhr
7.4
00:00 Uhr
10.6
06:50 Uhr
2
18:35 Uhr

00:00 Uhr

00:00 Uhr

00:00 Uhr
22
Zeitraffer
10:14
20.2
13:25 Uhr
12.6
00:15 Uhr

91
20:05 Uhr
66
13:30 Uhr
1014.2
12:00 Uhr

1009.2
00:30 Uhr
1012.2
0,000
00:00 Uhr
0,000
1.295
153
436
11:10 Uhr
1.2
11:45 Uhr

02:45:00
2,9
1
25,7
11:20 Uhr

4
14.3
16:00 Uhr
8.1
00:15 Uhr
12.1
01:20 Uhr
5
12:05 Uhr

00:00 Uhr

00:00 Uhr

00:00 Uhr
23
Zeitraffer
10:10
16.7
13:40 Uhr
11.7
07:50 Uhr

93
19:10 Uhr
81
00:00 Uhr
1013.1
09:30 Uhr

1009.4
20:45 Uhr
1011.6
6,000
17:05 Uhr
1,800
0.432
72
171
10:50 Uhr
0.8
13:35 Uhr

00:00:00
0,7
0
16,1
21:15 Uhr

3
14.3
14:00 Uhr
10.1
07:50 Uhr
11.7
07:50 Uhr
6
18:25 Uhr

00:00 Uhr

00:00 Uhr

00:00 Uhr
24
Zeitraffer
10:06
17.3
15:05 Uhr
10.2
20:20 Uhr

94
03:40 Uhr
70
13:45 Uhr
1014.3
12:15 Uhr

1010.8
00:00 Uhr
1013.2
2,400
12:25 Uhr
0,200
0.991
206
503
13:05 Uhr
1.2
12:20 Uhr

03:20:00
1,7
0
24,1
13:30 Uhr

4
13.5
11:55 Uhr
8.9
20:25 Uhr
10.2
20:20 Uhr
4
11:55 Uhr

00:00 Uhr

00:00 Uhr

00:00 Uhr
25
Zeitraffer
10:02
17.6
13:05 Uhr
7.9
05:30 Uhr

93
05:35 Uhr
64
14:05 Uhr
1013.5
00:00 Uhr

1005.4
22:30 Uhr
1009.4
0,000
00:00 Uhr
0,000
1.270
197
403
11:55 Uhr
1.2
10:40 Uhr

05:50:00
2,2
1
24,1
10:15 Uhr

4
11.4
13:00 Uhr
6.7
05:30 Uhr
7.9
05:30 Uhr
2
00:05 Uhr

00:00 Uhr

00:00 Uhr

00:00 Uhr
26
Zeitraffer
09:59
13.9
13:20 Uhr
7.8
05:20 Uhr

94
07:35 Uhr
85
13:25 Uhr
1006.0
23:30 Uhr

1002.2
14:00 Uhr
1004.2
2,400
20:20 Uhr
0,200
0.330
84
352
13:15 Uhr
0.8
12:05 Uhr

00:45:00
0,5
0
19,3
22:55 Uhr

3
11.8
13:20 Uhr
6.8
05:15 Uhr
7.8
05:20 Uhr
4
00:10 Uhr

00:00 Uhr

00:00 Uhr

00:00 Uhr
27
Zeitraffer
09:55
12.9
13:10 Uhr
8.1
23:45 Uhr

92
00:00 Uhr
74
13:05 Uhr
1011.2
21:00 Uhr

1006.0
00:00 Uhr
1009.2
0,000
00:00 Uhr
0,000
0.711
107
371
10:25 Uhr
0.9
10:55 Uhr

01:00:00
1,7
0
20,9
13:20 Uhr

4
9.5
00:00 Uhr
5.4
22:45 Uhr
8.1
23:45 Uhr
2
00:05 Uhr

00:00 Uhr

00:00 Uhr

00:00 Uhr
28
Zeitraffer
09:51
13.3
14:20 Uhr
7.6
04:05 Uhr

94
23:00 Uhr
76
12:30 Uhr
1011.7
18:15 Uhr

1009.1
04:30 Uhr
1010.6
0,000
00:00 Uhr
0,000
0.660
86
187
13:00 Uhr
0.8
10:45 Uhr

00:00:00
3,1
1
20,9
03:40 Uhr

4
9.7
16:15 Uhr
5.0
01:30 Uhr
4.6
06:10 Uhr
2
17:20 Uhr

00:00 Uhr

00:00 Uhr

00:00 Uhr
29
Zeitraffer
09:47
13.2
12:25 Uhr
8.3
01:30 Uhr

93
08:00 Uhr
68
13:15 Uhr
1017.5
22:30 Uhr

1008.6
06:30 Uhr
1012.7
2,400
06:05 Uhr
0,600
0.864
129
470
11:20 Uhr
0.9
11:20 Uhr

02:40:00
4,0
1
35,4
12:35 Uhr

5
9.3
09:10 Uhr
5.4
23:45 Uhr
7.9
14:15 Uhr
0
00:00 Uhr

00:00 Uhr

00:00 Uhr

00:00 Uhr
30
Zeitraffer
09:43
13.4
19:55 Uhr
7.3
02:45 Uhr

94
10:15 Uhr
80
00:00 Uhr
1019.0
23:45 Uhr

1014.3
12:30 Uhr
1016.1
2,400
05:05 Uhr
7,200
0.203
37
81
12:55 Uhr
0.0
00:00 Uhr

00:00:00
3,2
1
25,7
14:40 Uhr

4
12.5
20:25 Uhr
4.9
01:05 Uhr
7.3
02:45 Uhr
5
18:10 Uhr

00:00 Uhr

00:00 Uhr

00:00 Uhr
31
Zeitraffer
09:40
15.1
12:50 Uhr
12.5
23:50 Uhr

94
00:00 Uhr
93
13:40 Uhr
1022.5
09:45 Uhr

1018.3
23:15 Uhr
1020.7
2,400
01:20 Uhr
1,800
0.254
56
146
12:00 Uhr
0.6
11:50 Uhr

00:00:00
0,9
0
17,7
00:40 Uhr

3
14.2
13:00 Uhr
11.6
23:45 Uhr
12.5
23:50 Uhr
5
00:05 Uhr

00:00 Uhr

00:00 Uhr

00:00 Uhr
Stationsstandorte || Wetterblog || Wissenswertes || Downloads || Seitenhistorie || Partner || Impressum / Datenschutz